THY46H LTFM-LTCT

Flight info

Callsign THY46H
Flight time 1h 45m
Altitude 39000
Route VICEN1E/36 VICEN DCT ASMAP UL333 LATGA UT363 GURBU UL615 ERZ UN161 YAVUZ UT331 ASKAZ
Aircraft A20N/M-SDE2E3FGHIRWXY/LB1

Departure

Time 2026-05-06 17:05
Airport İstanbul Airport (LTFM)

Arrival

Time 2026-05-06 18:50
Airport Iğdır Airport (LTCT)
Time Latitude Longitude Altitude Speed Heading
2026-05-06 16:53 41.26491 28.74974 313 ft 0 kts 287°
2026-05-06 16:58 41.26490 28.74975 313 ft 1 kts 286°
2026-05-06 16:58 41.26488 28.74985 313 ft 1 kts 281°
2026-05-06 16:58 41.26487 28.74995 312 ft 2 kts 275°
2026-05-06 16:59 41.26488 28.75033 312 ft 4 kts 254°
2026-05-06 16:59 41.26501 28.75069 311 ft 4 kts 232°
2026-05-06 16:59 41.26520 28.75094 312 ft 4 kts 208°
2026-05-06 16:59 41.26532 28.75100 311 ft 0 kts 181°
2026-05-06 17:02 41.26529 28.75099 311 ft 2 kts 183°
2026-05-06 17:02 41.26485 28.75080 312 ft 11 kts 200°
2026-05-06 17:02 41.26424 28.75054 313 ft 16 kts 197°
2026-05-06 17:02 41.26290 28.75010 313 ft 23 kts 181°
2026-05-06 17:03 41.26247 28.75181 313 ft 24 kts 86°
2026-05-06 17:03 41.26245 28.75405 314 ft 21 kts 90°
2026-05-06 17:03 41.26247 28.75610 314 ft 12 kts 86°
2026-05-06 17:03 41.26251 28.75625 315 ft 2 kts 68°
2026-05-06 17:04 41.26323 28.75660 314 ft 34 kts
2026-05-06 17:04 41.26811 28.75657 304 ft 104 kts 359°
2026-05-06 17:04 41.27712 28.75647 284 ft 156 kts
2026-05-06 17:04 41.28837 28.75605 784 ft 162 kts
2026-05-06 17:05 41.29977 28.75563 1484 ft 166 kts 359°
2026-05-06 17:05 41.31119 28.75838 2158 ft 170 kts 26°
2026-05-06 17:05 41.32046 28.76807 2837 ft 173 kts 44°
2026-05-06 17:05 41.32937 28.78001 3247 ft 191 kts 40°
2026-05-06 17:06 41.34031 28.79178 3623 ft 214 kts 33°
2026-05-06 17:06 41.35320 28.80299 4197 ft 233 kts 29°
2026-05-06 17:06 41.36748 28.81416 5064 ft 240 kts 31°
2026-05-06 17:06 41.37925 28.83029 6038 ft 249 kts 57°
2026-05-06 17:07 41.38413 28.85281 6927 ft 261 kts 83°
2026-05-06 17:07 41.38451 28.87728 7623 ft 275 kts 85°
2026-05-06 17:07 41.38333 28.90309 8471 ft 285 kts 100°
2026-05-06 17:07 41.37456 28.92718 9358 ft 298 kts 126°
2026-05-06 17:08 41.35824 28.94506 10187 ft 311 kts 152°
2026-05-06 17:08 41.33689 28.95364 10627 ft 334 kts 174°
2026-05-06 17:08 41.31289 28.95409 10912 ft 357 kts 184°
2026-05-06 17:08 41.28772 28.95195 11553 ft 365 kts 184°
2026-05-06 17:09 41.26254 28.95019 12378 ft 369 kts 182°
2026-05-06 17:09 41.23676 28.94765 13195 ft 373 kts 186°
2026-05-06 17:09 41.21066 28.94459 13983 ft 378 kts 185°
2026-05-06 17:09 41.18433 28.94195 14729 ft 380 kts 185°
2026-05-06 17:10 41.15781 28.93949 15523 ft 382 kts 184°
2026-05-06 17:10 41.13104 28.93707 16284 ft 385 kts 184°
2026-05-06 17:10 41.10452 28.93466 17027 ft 388 kts 184°
2026-05-06 17:10 41.07755 28.93220 17774 ft 390 kts 184°
2026-05-06 17:11 41.05024 28.93015 18489 ft 394 kts 179°
2026-05-06 17:11 41.02321 28.93602 19090 ft 396 kts 161°
2026-05-06 17:11 40.99898 28.95178 19676 ft 398 kts 144°
2026-05-06 17:11 40.98111 28.97179 20184 ft 399 kts 134°
2026-05-06 17:12 40.96159 28.99820 20770 ft 402 kts 132°
2026-05-06 17:12 40.94226 29.02530 21353 ft 406 kts 132°
2026-05-06 17:12 40.92263 29.05227 21933 ft 409 kts 133°
2026-05-06 17:12 40.90280 29.07879 22490 ft 412 kts 133°
2026-05-06 17:13 40.88234 29.10564 23078 ft 416 kts 134°
2026-05-06 17:13 40.86215 29.13341 23617 ft 419 kts 127°
2026-05-06 17:13 40.84597 29.16532 24106 ft 418 kts 116°
2026-05-06 17:13 40.83487 29.20085 24585 ft 418 kts 104°
2026-05-06 17:14 40.82750 29.23811 25060 ft 420 kts 102°
2026-05-06 17:14 40.82030 29.27504 25498 ft 423 kts 102°
2026-05-06 17:14 40.81287 29.31278 25964 ft 425 kts 103°
2026-05-06 17:14 40.80537 29.35069 26415 ft 428 kts 103°
2026-05-06 17:15 40.79783 29.38863 26848 ft 431 kts 103°
2026-05-06 17:15 40.79017 29.42706 27264 ft 434 kts 103°
2026-05-06 17:15 40.78244 29.46576 27678 ft 436 kts 103°
2026-05-06 17:15 40.77466 29.50470 28077 ft 439 kts 103°
2026-05-06 17:16 40.76693 29.54324 28466 ft 442 kts 103°
2026-05-06 17:16 40.75902 29.58262 28823 ft 444 kts 103°
2026-05-06 17:16 40.75107 29.62210 29175 ft 447 kts 103°
2026-05-06 17:16 40.74304 29.66195 29529 ft 449 kts 103°
2026-05-06 17:17 40.73653 29.70229 29856 ft 450 kts 96°
2026-05-06 17:17 40.73363 29.74294 30160 ft 451 kts 90°
2026-05-06 17:17 40.73302 29.78439 30438 ft 454 kts 89°
2026-05-06 17:17 40.73235 29.82611 30716 ft 456 kts 89°
2026-05-06 17:18 40.73160 29.86826 30993 ft 459 kts 89°
2026-05-06 17:18 40.73081 29.91051 31295 ft 461 kts 89°
2026-05-06 17:18 40.73000 29.95232 31642 ft 461 kts 89°
2026-05-06 17:18 40.72917 29.99468 32027 ft 461 kts 89°
2026-05-06 17:19 40.72755 30.03703 32391 ft 463 kts 94°
2026-05-06 17:19 40.72241 30.07908 32753 ft 465 kts 100°
2026-05-06 17:19 40.71360 30.12031 33093 ft 467 kts 107°
2026-05-06 17:19 40.70278 30.16070 33438 ft 468 kts 107°
2026-05-06 17:20 40.69217 30.20068 33788 ft 468 kts 107°
2026-05-06 17:20 40.68142 30.24133 34113 ft 468 kts 107°
2026-05-06 17:20 40.67112 30.28199 34394 ft 467 kts 103°
2026-05-06 17:20 40.66402 30.32365 34654 ft 464 kts 96°
2026-05-06 17:21 40.66025 30.36533 34900 ft 463 kts 93°
2026-05-06 17:21 40.65689 30.40753 35153 ft 463 kts 93°
2026-05-06 17:21 40.65343 30.44985 35402 ft 464 kts 93°
2026-05-06 17:21 40.64991 30.49214 35643 ft 464 kts 93°
2026-05-06 17:22 40.64637 30.53448 35878 ft 464 kts 93°
2026-05-06 17:22 40.64282 30.57670 36098 ft 464 kts 93°
2026-05-06 17:22 40.63923 30.61915 36326 ft 465 kts 93°
2026-05-06 17:22 40.63569 30.66093 36534 ft 465 kts 94°
2026-05-06 17:23 40.63166 30.70330 36750 ft 466 kts 97°
2026-05-06 17:23 40.62447 30.74504 36950 ft 469 kts 103°
2026-05-06 17:23 40.61560 30.78634 37119 ft 469 kts 103°
2026-05-06 17:23 40.60682 30.82767 37338 ft 469 kts 103°
2026-05-06 17:24 40.59804 30.86914 37506 ft 469 kts 103°
2026-05-06 17:24 40.58929 30.91051 37672 ft 469 kts 103°
2026-05-06 17:24 40.58061 30.95143 37866 ft 469 kts 103°
2026-05-06 17:24 40.57180 30.99288 38046 ft 469 kts 103°
2026-05-06 17:25 40.56298 31.03425 38240 ft 469 kts 103°
2026-05-06 17:25 40.55413 31.07571 38407 ft 469 kts 103°
2026-05-06 17:25 40.54528 31.11703 38603 ft 469 kts 103°
2026-05-06 17:25 40.53641 31.15838 38755 ft 469 kts 103°
2026-05-06 17:26 40.52767 31.19907 38875 ft 469 kts 103°
2026-05-06 17:26 40.50986 31.28163 39084 ft 469 kts 104°
2026-05-06 17:27 40.49192 31.36443 39100 ft 469 kts 104°
2026-05-06 17:27 40.47398 31.44689 39100 ft 470 kts 104°
2026-05-06 17:28 40.45598 31.52942 39098 ft 474 kts 104°
2026-05-06 17:28 40.43779 31.61261 39098 ft 473 kts 104°
2026-05-06 17:29 40.41957 31.69566 39096 ft 473 kts 104°
2026-05-06 17:29 40.40140 31.77815 39098 ft 473 kts 104°
2026-05-06 17:30 40.38302 31.86128 39102 ft 474 kts 104°
2026-05-06 17:30 40.36455 31.94452 39104 ft 474 kts 104°
2026-05-06 17:31 40.34609 32.02703 39105 ft 474 kts 104°
2026-05-06 17:31 40.32744 32.11007 39106 ft 474 kts 103°
2026-05-06 17:32 40.31085 32.19398 39101 ft 474 kts 102°
2026-05-06 17:32 40.29479 32.27729 39105 ft 473 kts 102°
2026-05-06 17:33 40.27831 32.36088 39101 ft 473 kts 102°
2026-05-06 17:33 40.26168 32.44432 39096 ft 473 kts 103°
2026-05-06 17:34 40.24497 32.52779 39093 ft 473 kts 103°
2026-05-06 17:34 40.22832 32.61063 39100 ft 473 kts 103°
2026-05-06 17:35 40.21150 32.69403 39103 ft 473 kts 103°
2026-05-06 17:35 40.19459 32.77747 39095 ft 474 kts 103°
2026-05-06 17:36 40.16923 32.90208 39093 ft 474 kts 103°
2026-05-06 17:36 40.15373 32.98583 39094 ft 473 kts 97°
2026-05-06 17:37 40.14841 33.07114 39091 ft 470 kts 87°
2026-05-06 17:37 40.15090 33.15648 39098 ft 469 kts 85°
2026-05-06 17:38 40.15338 33.24144 39111 ft 469 kts 85°
2026-05-06 17:38 40.15575 33.32689 39099 ft 469 kts 85°
2026-05-06 17:39 40.15805 33.41172 39096 ft 470 kts 85°
2026-05-06 17:39 40.16030 33.49718 39094 ft 470 kts 85°
2026-05-06 17:40 40.16249 33.58257 39091 ft 469 kts 86°
2026-05-06 17:40 40.16462 33.66793 39087 ft 469 kts 86°
2026-05-06 17:41 40.16668 33.75281 39083 ft 469 kts 86°
2026-05-06 17:41 40.16607 33.83834 39082 ft 471 kts 93°
2026-05-06 17:42 40.15598 33.92333 39084 ft 472 kts 99°
2026-05-06 17:42 40.14516 34.00752 39080 ft 471 kts 94°
2026-05-06 17:43 40.14482 34.09284 39075 ft 469 kts 85°
2026-05-06 17:43 40.14691 34.17810 39080 ft 469 kts 87°
2026-05-06 17:44 40.14770 34.26342 39082 ft 469 kts 88°
2026-05-06 17:44 40.14795 34.34829 39081 ft 470 kts 88°
2026-05-06 17:45 40.14809 34.43386 39081 ft 470 kts 88°
2026-05-06 17:45 40.14815 34.51954 39087 ft 470 kts 88°
2026-05-06 17:46 40.14813 34.60453 39086 ft 470 kts 88°
2026-05-06 17:46 40.14805 34.69029 39084 ft 471 kts 88°
2026-05-06 17:47 40.14791 34.77545 39086 ft 471 kts 88°
2026-05-06 17:47 40.14771 34.86117 39085 ft 471 kts 89°
2026-05-06 17:48 40.14744 34.94683 39087 ft 471 kts 89°
2026-05-06 17:48 40.14717 35.01814 39086 ft 471 kts 89°
2026-05-06 17:49 40.14672 35.11776 39084 ft 471 kts 89°
2026-05-06 17:49 40.14634 35.18959 39088 ft 471 kts 89°
2026-05-06 17:50 40.14583 35.27525 39088 ft 471 kts 89°
2026-05-06 17:50 40.14527 35.36043 39088 ft 471 kts 89°
2026-05-06 17:51 40.14463 35.44619 39090 ft 471 kts 89°
2026-05-06 17:51 40.14393 35.53196 39093 ft 471 kts 89°
2026-05-06 17:52 40.14317 35.61714 39095 ft 471 kts 90°
2026-05-06 17:52 40.14235 35.70279 39098 ft 471 kts 90°
2026-05-06 17:53 40.14146 35.78836 39102 ft 471 kts 90°
2026-05-06 17:53 40.14051 35.87391 39107 ft 470 kts 90°
2026-05-06 17:54 40.13951 35.95896 39111 ft 470 kts 90°
2026-05-06 17:54 40.13843 36.04464 39115 ft 471 kts 90°
2026-05-06 17:55 40.13729 36.13021 39119 ft 470 kts 90°
2026-05-06 17:55 40.13609 36.21535 39122 ft 470 kts 90°
2026-05-06 17:56 40.13482 36.30106 39118 ft 470 kts 91°
2026-05-06 17:56 40.13350 36.38643 39119 ft 470 kts 91°
2026-05-06 17:57 40.13212 36.47126 39118 ft 469 kts 91°
2026-05-06 17:57 40.13067 36.55665 39117 ft 469 kts 91°
2026-05-06 17:58 40.12917 36.64139 39117 ft 469 kts 91°
2026-05-06 17:58 40.12760 36.72673 39115 ft 468 kts 91°
2026-05-06 17:59 40.12597 36.81188 39116 ft 468 kts 91°
2026-05-06 17:59 40.12428 36.89639 39119 ft 468 kts 91°
2026-05-06 18:00 40.12252 36.98161 39117 ft 468 kts 91°
2026-05-06 18:00 40.12070 37.06676 39111 ft 468 kts 91°
2026-05-06 18:01 40.11882 37.15189 39109 ft 468 kts 92°
2026-05-06 18:01 40.11688 37.23660 39114 ft 469 kts 92°
2026-05-06 18:02 40.11486 37.32203 39118 ft 470 kts 92°
2026-05-06 18:02 40.11280 37.40700 39124 ft 470 kts 92°
2026-05-06 18:03 40.11066 37.49254 39125 ft 471 kts 92°
2026-05-06 18:03 40.10845 37.57828 39126 ft 471 kts 92°
2026-05-06 18:04 40.10618 37.66397 39129 ft 471 kts 92°
2026-05-06 18:04 40.10386 37.74912 39129 ft 472 kts 92°
2026-05-06 18:05 40.10146 37.83488 39132 ft 472 kts 92°
2026-05-06 18:05 40.09900 37.92023 39136 ft 472 kts 92°
2026-05-06 18:06 40.09648 38.00607 39136 ft 473 kts 92°
2026-05-06 18:06 40.09388 38.09203 39134 ft 473 kts 93°
2026-05-06 18:07 40.09122 38.17800 39127 ft 473 kts 93°
2026-05-06 18:07 40.08851 38.26340 39125 ft 473 kts 93°
2026-05-06 18:08 40.08573 38.34925 39118 ft 473 kts 93°
2026-05-06 18:08 40.08288 38.43516 39118 ft 472 kts 93°
2026-05-06 18:09 40.07999 38.52038 39115 ft 473 kts 93°
2026-05-06 18:09 40.07701 38.60626 39110 ft 473 kts 94°
2026-05-06 18:10 40.07397 38.69220 39109 ft 473 kts 94°
2026-05-06 18:10 40.07088 38.77814 39114 ft 473 kts 94°
2026-05-06 18:11 40.06773 38.86353 39105 ft 473 kts 94°
2026-05-06 18:11 40.06449 38.94960 39106 ft 473 kts 94°
2026-05-06 18:12 40.06122 39.03492 39105 ft 473 kts 94°
2026-05-06 18:12 40.05785 39.12080 39102 ft 473 kts 94°
2026-05-06 18:13 40.05443 39.20686 39100 ft 474 kts 94°
2026-05-06 18:13 40.05094 39.29288 39094 ft 474 kts 94°
2026-05-06 18:14 40.04741 39.37835 39100 ft 474 kts 95°
2026-05-06 18:14 40.04378 39.46455 39098 ft 475 kts 95°
2026-05-06 18:15 40.04010 39.55067 39099 ft 476 kts 95°
2026-05-06 18:15 40.03635 39.63666 39094 ft 476 kts 95°
2026-05-06 18:16 40.03253 39.72298 39101 ft 476 kts 95°
2026-05-06 18:16 40.02864 39.80935 39099 ft 477 kts 95°
2026-05-06 18:17 40.02468 39.89590 39097 ft 476 kts 95°
2026-05-06 18:17 40.02068 39.98185 39100 ft 477 kts 95°
2026-05-06 18:18 40.01658 40.06862 39120 ft 479 kts 95°
2026-05-06 18:18 40.01241 40.15536 39098 ft 477 kts 95°
2026-05-06 18:19 40.00819 40.24183 39101 ft 478 kts 96°
2026-05-06 18:19 40.00393 40.32795 39105 ft 479 kts 96°
2026-05-06 18:20 39.99956 40.41470 39119 ft 478 kts 96°
2026-05-06 18:20 39.99514 40.50143 39109 ft 479 kts 96°
2026-05-06 18:21 39.99065 40.58820 39110 ft 479 kts 96°
2026-05-06 18:21 39.98609 40.67483 39107 ft 479 kts 96°
2026-05-06 18:22 39.98150 40.76106 39109 ft 479 kts 96°
2026-05-06 18:22 39.97682 40.84776 39121 ft 478 kts 96°
2026-05-06 18:23 39.97209 40.93436 39127 ft 479 kts 96°
2026-05-06 18:23 39.96735 41.02061 39122 ft 479 kts 96°
2026-05-06 18:24 39.96252 41.10748 39125 ft 479 kts 97°
2026-05-06 18:24 39.95773 41.19354 39128 ft 479 kts 95°
2026-05-06 18:25 39.96167 41.28067 39120 ft 482 kts 86°
2026-05-06 18:25 39.96854 41.36764 39113 ft 481 kts 86°
2026-05-06 18:26 39.97185 41.41096 38948 ft 479 kts 86°
2026-05-06 18:26 39.97510 41.45440 38705 ft 481 kts 86°
2026-05-06 18:26 39.97825 41.49733 38448 ft 482 kts 86°
2026-05-06 18:26 39.98142 41.54102 38176 ft 483 kts 86°
2026-05-06 18:27 39.98458 41.58466 37906 ft 483 kts 87°
2026-05-06 18:27 39.98772 41.62840 37643 ft 483 kts 87°
2026-05-06 18:27 39.99085 41.67202 37379 ft 483 kts 87°
2026-05-06 18:27 39.99395 41.71571 37119 ft 484 kts 87°
2026-05-06 18:28 39.99702 41.75890 36866 ft 484 kts 87°
2026-05-06 18:28 40.00019 41.80274 36614 ft 485 kts 87°
2026-05-06 18:28 40.00340 41.84656 36362 ft 485 kts 87°
2026-05-06 18:28 40.00660 41.89047 36116 ft 485 kts 87°
2026-05-06 18:29 40.00977 41.93434 35872 ft 486 kts 87°
2026-05-06 18:29 40.01293 41.97834 35627 ft 486 kts 87°
2026-05-06 18:29 40.01602 42.02164 35390 ft 486 kts 88°
2026-05-06 18:29 40.01914 42.06567 35138 ft 487 kts 88°
2026-05-06 18:30 40.02225 42.10994 34593 ft 490 kts 88°
2026-05-06 18:30 40.02536 42.15435 33816 ft 493 kts 88°
2026-05-06 18:30 40.02848 42.19915 32867 ft 497 kts 88°
2026-05-06 18:30 40.03160 42.24412 32048 ft 497 kts 88°
2026-05-06 18:31 40.03470 42.28912 31207 ft 497 kts 88°
2026-05-06 18:31 40.03775 42.33356 30257 ft 497 kts 88°
2026-05-06 18:31 40.04081 42.37833 29158 ft 491 kts 88°
2026-05-06 18:31 40.04381 42.42262 28081 ft 485 kts 87°
2026-05-06 18:32 40.04670 42.46621 27048 ft 479 kts 87°
2026-05-06 18:32 40.04940 42.50926 26073 ft 472 kts 87°
2026-05-06 18:32 40.05201 42.55202 25218 ft 471 kts 87°
2026-05-06 18:32 40.05459 42.59463 24382 ft 471 kts 87°
2026-05-06 18:33 40.05717 42.63712 23540 ft 469 kts 87°
2026-05-06 18:33 40.05972 42.67915 22586 ft 468 kts 86°
2026-05-06 18:33 40.06229 42.72137 21653 ft 465 kts 86°
2026-05-06 18:33 40.06482 42.76340 20750 ft 463 kts 86°
2026-05-06 18:34 40.06733 42.80518 19934 ft 459 kts 86°
2026-05-06 18:34 40.06979 42.84646 19200 ft 453 kts 86°
2026-05-06 18:34 40.07221 42.88732 18490 ft 448 kts 86°
2026-05-06 18:34 40.07455 42.92710 17701 ft 443 kts 86°
2026-05-06 18:35 40.07688 42.96685 17044 ft 434 kts 86°
2026-05-06 18:35 40.07916 43.00582 16478 ft 425 kts 86°
2026-05-06 18:35 40.08138 43.04393 15916 ft 416 kts 87°
2026-05-06 18:35 40.08281 43.06866 15547 ft 410 kts 87°
2026-05-06 18:36 40.08493 43.10542 15061 ft 401 kts 87°
2026-05-06 18:36 40.08698 43.14137 14598 ft 392 kts 87°
2026-05-06 18:36 40.08898 43.17648 14137 ft 384 kts 87°
2026-05-06 18:36 40.09093 43.21096 13653 ft 377 kts 87°
2026-05-06 18:37 40.09284 43.24487 13148 ft 371 kts 87°
2026-05-06 18:37 40.09470 43.27824 12642 ft 365 kts 87°
2026-05-06 18:37 40.09653 43.31116 12154 ft 360 kts 87°
2026-05-06 18:37 40.09779 43.34324 11673 ft 355 kts 94°
2026-05-06 18:38 40.09381 43.37467 11231 ft 347 kts 109°
2026-05-06 18:38 40.08391 43.40287 10972 ft 339 kts 123°
2026-05-06 18:38 40.07134 43.42912 10723 ft 341 kts 124°
2026-05-06 18:38 40.05887 43.45537 10535 ft 339 kts 123°
2026-05-06 18:39 40.04650 43.48151 10433 ft 337 kts 123°
2026-05-06 18:39 40.03409 43.50771 10432 ft 340 kts 123°
2026-05-06 18:39 40.02183 43.53359 10436 ft 340 kts 123°
2026-05-06 18:40 39.99943 43.58811 10192 ft 341 kts 108°
2026-05-06 18:40 39.99517 43.61782 10027 ft 325 kts 95°
2026-05-06 18:40 39.99459 43.64649 9855 ft 307 kts 92°
2026-05-06 18:40 39.99404 43.67318 9692 ft 290 kts 93°
2026-05-06 18:41 39.99346 43.69874 9547 ft 274 kts 93°
2026-05-06 18:41 39.99287 43.72287 9391 ft 257 kts 93°
2026-05-06 18:41 39.99228 43.74576 9164 ft 250 kts 93°
2026-05-06 18:41 39.99170 43.76813 9057 ft 241 kts 93°
2026-05-06 18:42 39.99111 43.79037 9019 ft 250 kts 93°
2026-05-06 18:42 39.99053 43.81294 8914 ft 247 kts 93°
2026-05-06 18:42 39.98997 43.83497 8809 ft 246 kts 93°
2026-05-06 18:42 39.98939 43.85730 8705 ft 246 kts 93°
2026-05-06 18:43 39.98881 43.87961 8594 ft 245 kts 93°
2026-05-06 18:43 39.98824 43.90172 8501 ft 238 kts 93°
2026-05-06 18:43 39.98768 43.92324 8398 ft 243 kts 92°
2026-05-06 18:43 39.98711 43.94543 8281 ft 245 kts 93°
2026-05-06 18:44 39.98652 43.96725 8147 ft 242 kts 93°
2026-05-06 18:44 39.98590 43.98919 8006 ft 242 kts 93°
2026-05-06 18:44 39.98529 44.01112 7846 ft 241 kts 92°
2026-05-06 18:44 39.98473 44.03294 7697 ft 241 kts 92°
2026-05-06 18:45 39.98413 44.05476 7511 ft 241 kts 92°
2026-05-06 18:45 39.98188 44.07618 7312 ft 238 kts 114°
2026-05-06 18:45 39.97221 44.09323 7107 ft 235 kts 145°
2026-05-06 18:45 39.95727 44.10097 6914 ft 233 kts 177°
2026-05-06 18:46 39.94117 44.09912 6728 ft 233 kts 193°
2026-05-06 18:46 39.92541 44.09389 6522 ft 232 kts 197°
2026-05-06 18:46 39.91132 44.08411 6329 ft 231 kts 226°
2026-05-06 18:46 39.90350 44.06650 6130 ft 230 kts 258°
2026-05-06 18:47 39.90351 44.04583 5932 ft 229 kts 278°
2026-05-06 18:47 39.90634 44.02556 5675 ft 225 kts 282°
2026-05-06 18:47 39.90948 44.00591 5420 ft 215 kts 281°
2026-05-06 18:47 39.91223 43.98763 5259 ft 194 kts 282°
2026-05-06 18:48 39.91719 43.97213 5008 ft 178 kts 304°
2026-05-06 18:48 39.92471 43.96042 4854 ft 160 kts 310°
2026-05-06 18:48 39.93207 43.94955 4470 ft 158 kts 309°
2026-05-06 18:48 39.93894 43.93889 4190 ft 152 kts 307°
2026-05-06 18:49 39.94548 43.92785 3887 ft 154 kts 304°
2026-05-06 18:49 39.95196 43.91694 3670 ft 153 kts 306°
2026-05-06 18:49 39.95855 43.90584 3413 ft 155 kts 307°
2026-05-06 18:49 39.96525 43.89493 3143 ft 152 kts 308°
2026-05-06 18:50 39.97164 43.88469 3084 ft 128 kts 308°
2026-05-06 18:50 39.97598 43.87771 3090 ft 70 kts 309°
2026-05-06 18:50 39.97767 43.87499 3097 ft 0 kts 327°
2026-05-06 18:50 39.97774 43.87498 3095 ft 2 kts 354°
2026-05-06 18:51 39.97790 43.87523 3098 ft 7 kts 56°
2026-05-06 18:51 39.97837 43.87603 3099 ft 15 kts 49°
2026-05-06 18:51 39.97935 43.87710 3099 ft 22 kts 38°
2026-05-06 18:51 39.97995 43.87774 3097 ft 0 kts 39°